This is the latest recevied weather packets stored in our database for station/object KC2GYU. If no packets are shown the sender has not sent any weather packets the latest 10 day(s).
| Time | Temp. | Humidity | Pressure | Rain* | Wind** | Luminosity | Snow |
|---|---|---|---|---|---|---|---|
| 1778253622 | 17.78° C | 46% | 1015.1 hPa | 0 mm | - | 618 W/m² | - |
| 1778253320 | 17.78° C | 45% | 1015.3 hPa | 0 mm | - | 613 W/m² | - |
| 1778253016 | 18.33° C | 48% | 1015.1 hPa | 0 mm | - | 612 W/m² | - |
| 1778252714 | 17.78° C | 46% | 1015.3 hPa | 0 mm | - | 609 W/m² | - |
| 1778252409 | 17.78° C | 46% | 1015.2 hPa | 0 mm | - | 612 W/m² | - |
| 1778252106 | 17.78° C | 41% | 1015.1 hPa | 0 mm | - | 598 W/m² | - |
| 1778251802 | 17.78° C | 48% | 1015.3 hPa | 0 mm | - | 597 W/m² | - |
| 1778251500 | 17.22° C | 43% | 1015.5 hPa | 0 mm | - | 593 W/m² | - |
| 1778251197 | 17.22° C | 44% | 1015.6 hPa | 0 mm | - | 583 W/m² | - |
| 1778250895 | 17.22° C | 43% | 1015.6 hPa | 0 mm | - | 560 W/m² | - |
| 1778250591 | 17.22° C | 46% | 1015.6 hPa | 0 mm | - | 534 W/m² | - |
| 1778250288 | 17.22° C | 48% | 1015.3 hPa | 0 mm | - | 537 W/m² | - |
| 1778249984 | 16.67° C | 46% | 1015.3 hPa | 0 mm | - | 514 W/m² | - |
| 1778249682 | 17.22° C | 43% | 1015.5 hPa | 0 mm | - | 499 W/m² | - |
| 1778249379 | 16.67° C | 47% | 1015.5 hPa | 0 mm | - | 497 W/m² | - |
| 1778249076 | 16.11° C | 48% | 1015.6 hPa | 0 mm | - | 524 W/m² | - |
| 1778248771 | 16.11° C | 49% | 1015.7 hPa | 0 mm | - | 524 W/m² | - |
| 1778248468 | 16.11° C | 48% | 1015.7 hPa | 0 mm | - | 513 W/m² | - |
| 1778248165 | 16.11° C | 50% | 1015.7 hPa | 0 mm | - | 499 W/m² | - |
| 1778247861 | 16.11° C | 52% | 1015.7 hPa | 0 mm | - | 488 W/m² | - |
| 1778247558 | 16.11° C | 51% | 1015.9 hPa | 0 mm | - | 473 W/m² | - |
| 1778247256 | 16.11° C | 51% | 1015.7 hPa | 0 mm | - | 462 W/m² | - |
| 1778246952 | 15.56° C | 51% | 1015.5 hPa | 0 mm | - | 451 W/m² | - |
| 1778246651 | 15.56° C | 50% | 1015.7 hPa | 0 mm | - | 433 W/m² | - |
| 1778246347 | 15.56° C | 51% | 1015.7 hPa | 0 mm | - | 422 W/m² | - |
* Rain latest hour (hover to see other rain measurements)
** Current wind speed in m/s (hover to see current wind gust speed)